Location: Alafon
(8.4500°N, 4.2333°E)
Time: 03:31:30
(UTC+00:00)

Transit 2A - All Passes

Search period start: 01 August 2021 00:00
Search period end: 11 August 2021 00:00
Orbit: 598 x 960 km, 66.7° (Epoch: 31 July)

Date Brightness Start Highest point End Pass type
(mag) Time Alt. Az. Time Alt. Az. Time Alt. Az.
01 Aug - 05:05:12 10° SW 05:09:13 37° WNW 05:13:12 10° N visible
01 Aug - 15:49:37 10° NNW 15:55:40 72° ENE 16:02:00 10° SSE daylight
02 Aug - 04:30:44 10° SSW 04:35:04 71° WNW 04:39:21 10° NNE visible
02 Aug - 15:15:44 10° N 15:21:30 45° ENE 15:27:31 10° SE daylight
02 Aug - 17:00:43 10° WNW 17:04:29 17° WSW 17:08:20 10° SSW daylight
03 Aug - 03:56:38 10° S 04:00:56 60° ESE 04:05:10 10° NNE visible
03 Aug - 14:42:10 10° N 14:47:19 29° ENE 14:52:41 10° SE daylight
03 Aug - 16:25:16 10° NW 16:30:20 27° WSW 16:35:32 10° SSW daylight
04 Aug - 03:22:56 10° S 03:26:48 31° ESE 03:30:37 10° NE visible
04 Aug - 14:09:04 10° NNE 14:13:08 18° ENE 14:17:17 10° ESE daylight
04 Aug - 15:50:26 10° NW 15:56:11 42° WSW 16:02:07 10° S daylight
05 Aug - 02:49:48 10° SSE 02:52:40 17° ESE 02:55:31 10° ENE visible
05 Aug - 04:32:32 10° WSW 04:35:30 18° WNW 04:38:30 10° NNW visible
05 Aug - 13:37:24 10° NE 13:38:52 11° ENE 13:40:22 10° E daylight
05 Aug - 15:15:57 10° NNW 15:22:02 67° WSW 15:28:19 10° S daylight
06 Aug - 03:57:26 10° SW 04:01:19 32° WNW 04:05:13 10° N visible
06 Aug - 14:41:46 10° NNW 14:47:52 79° ENE 14:54:14 10° SSE daylight
07 Aug - 03:22:53 10° SSW 03:27:10 62° WNW 03:31:26 10° NNE visible
07 Aug - 14:07:50 10° N 14:13:43 50° ENE 14:19:49 10° SE daylight
07 Aug - 15:53:15 10° WNW 15:56:40 15° WSW 16:00:10 10° SW daylight
08 Aug - 02:48:43 10° SSW 02:53:02 68° ESE 02:57:19 10° NNE visible
08 Aug - 13:34:10 10° N 13:39:32 32° ENE 13:45:04 10° SE daylight
08 Aug - 15:17:38 10° NW 15:22:32 25° WSW 15:27:32 10° SSW daylight
09 Aug - 02:14:56 10° S 02:18:54 35° ESE 02:22:51 10° NE visible
09 Aug - 13:00:57 10° NNE 13:05:20 20° ENE 13:09:49 10° ESE daylight
09 Aug - 14:42:43 10° NW 14:48:23 39° WSW 14:54:13 10° S daylight
10 Aug - 01:41:40 10° SSE 01:44:47 19° ESE 01:47:52 10° ENE night (unlit)
10 Aug - 03:24:55 10° WSW 03:27:38 16° WNW 03:30:22 10° NNW visible
10 Aug - 12:28:43 10° NE 12:31:05 12° ENE 12:33:29 10° E daylight
10 Aug - 14:08:10 10° NNW 14:14:14 61° WSW 14:20:30 10° S daylight
